Regional Weather Roundup
Issued by NWS

Home | Current Version | Previous Version | Graphics & Text | Print | Product List | Glossary On
Versions: 1 2 3 4 5 6 7 8 9 10 11 12 13 14 15 16 17 18 19 20 21 22 23 24 25 26 27 28 29 30 31 32 33 34 35 36 37 38 39 40 41 42 43 44 45 46 47 48 49 50
000
ASUS43 KLMK 302202
RWRKY
KENTUCKY REGIONAL WEATHER ROUNDUP
NATIONAL WEATHER SERVICE LOUISVILLE KY
600 PM EDT THU OCT 30 2014

NOTE "FAIR" INDICATES FEW OR NO CLOUDS BELOW 12,000 FEET
WITH NO SIGNIFICANT WEATHER AND/OR OBSTRUCTIONS TO VISIBILITY.

KYZ001>023-026-027-061>063-070>075-302300-
WESTERN AND SOUTH CENTRAL KENTUCKY

CITY           SKY/WX    TMP DP  RH WIND       PRES   REMARKS
PADUCAH        MOSUNNY   62  39  42 CALM      30.03F
HENDERSON      PTCLDY    59  36  41 CALM      30.04S
OWENSBORO      CLOUDY    58  39  49 N5        30.06S
HOPKINSVILLE   CLEAR     60  38  44 N5        30.05S
BOWLING GREEN  CLEAR     60  37  42 CALM      30.05F
GLASGOW        CLEAR     58  36  43 W3        30.04F
$$

KYZ024-025-028>034-038-045-046-053-302300-
NORTH CENTRAL KENTUCKY

CITY           SKY/WX    TMP DP  RH WIND       PRES   REMARKS
LOUISVILLE/SDF PTCLDY    57  36  45 VRB6      30.05F
LOUISVILLE/LOU CLEAR     56  34  43 NW3       30.06F
FORT KNOX      PTCLDY    56  38  52 W3        30.04F
$$

KYZ035>037-039>044-047>052-055>060-089>105-302300-
NORTHEAST KENTUCKY

CITY           SKY/WX    TMP DP  RH WIND       PRES   REMARKS
LEXINGTON      CLEAR     53  37  54 N6        30.06S
COVINGTON      PTCLDY    54  33  45 CALM      30.06S
FRANKFORT      PTCLDY    53  36  52 SE5       30.05S
$$

KYZ054-064>069-076>088-106>120-302300-
SOUTHEAST KENTUCKY

CITY           SKY/WX    TMP DP  RH WIND       PRES   REMARKS
JACKSON        CLEAR     51  35  54 CALM      30.05S
LONDON         CLEAR     57  36  45 NE3       30.04F
SOMERSET       CLEAR     54  36  50 CALM      30.05F
MIDDLESBORO    CLEAR     56  37  48 N3        30.03S
MONTICELLO     CLEAR     58  38  47 CALM      30.06F
$$




USA.gov is the U.S. government's official web portal to all federal, state and local government web resources and services.